International Skating Union - Official Site

Essent ISU World Cup Calgary
November 8-10, 2013

Draw | Lap Times | Index | World Cup

Referee: Dan  IMMERFALL  (USA)
Starter: Hans  TERSTAPPEN  (CAN)
StartTime: EndTime: Air Temp: Ice Temp: Humidity:
17:25 19:11 17.3℃ -7.5℃ 29
Result 5000m Men Division B
Rankings as of Nov 10 2013 7:25PM
Rank: No.: Name: Nation: Time: Behind: Points:
1 150 Jonathan  Kuck USA USA 6:11.66200m - 19.08 - (19.0)
600m - 48.32 - (29.2)
1000m - 1:17.88 - (29.5)
1400m - 1:47.29 - (29.4)
1800m - 2:16.69 - (29.3)
2200m - 2:45.97 - (29.2)
2600m - 3:15.46 - (29.4)
3000m - 3:44.86 - (29.4)
3400m - 4:14.19 - (29.3)
3800m - 4:43.56 - (29.3)
4200m - 5:12.74 - (29.1)
4600m - 5:42.05 - (29.3)
5000m - 6:11.66 - (29.6)
32
2 40 Alexis  Contin FRA FRA 6:11.95200m - 18.90 - (18.8)
600m - 47.50 - (28.6)
1000m - 1:16.80 - (29.2)
1400m - 1:46.06 - (29.2)
1800m - 2:15.41 - (29.3)
2200m - 2:44.73 - (29.3)
2600m - 3:14.00 - (29.2)
3000m - 3:43.25 - (29.2)
3400m - 4:12.55 - (29.3)
3800m - 4:42.05 - (29.5)
4200m - 5:11.84 - (29.7)
4600m - 5:41.63 - (29.7)
5000m - 6:11.95 - (30.3)
0.29 27
3 137 Ivan  Skobrev RUS RUS 6:13.30200m - 19.12 - (19.1)
600m - 48.22 - (29.0)
1000m - 1:17.61 - (29.3)
1400m - 1:47.06 - (29.4)
1800m - 2:16.56 - (29.5)
2200m - 2:46.11 - (29.5)
2600m - 3:15.80 - (29.6)
3000m - 3:45.54 - (29.7)
3400m - 4:15.30 - (29.7)
3800m - 4:44.65 - (29.3)
4200m - 5:14.18 - (29.5)
4600m - 5:43.81 - (29.6)
5000m - 6:13.30 - (29.4)
1.64 23
4 149 Brian  Hansen USA USA 6:17.84200m - 18.78 - (18.7)
600m - 47.85 - (29.0)
1000m - 1:17.66 - (29.8)
1400m - 1:47.78 - (30.1)
1800m - 2:17.41 - (29.6)
2200m - 2:47.14 - (29.7)
2600m - 3:17.05 - (29.9)
3000m - 3:46.94 - (29.8)
3400m - 4:16.92 - (29.9)
3800m - 4:46.86 - (29.9)
4200m - 5:17.04 - (30.1)
4600m - 5:47.51 - (30.4)
5000m - 6:17.84 - (30.3)
6.18 19
5 113 Shane  Dobbin NZL NZL 6:20.22200m - 19.13 - (19.1)
600m - 48.70 - (29.5)
1000m - 1:18.23 - (29.5)
1400m - 1:47.87 - (29.6)
1800m - 2:17.55 - (29.6)
2200m - 2:47.56 - (30.0)
2600m - 3:17.71 - (30.1)
3000m - 3:47.98 - (30.2)
3400m - 4:18.26 - (30.2)
3800m - 4:48.20 - (29.9)
4200m - 5:18.41 - (30.2)
4600m - 5:48.96 - (30.5)
5000m - 6:20.22 - (31.2)
8.56 15
6 151 Emery  Lehman USA USA 6:20.57200m - 19.50 - (19.5)
600m - 49.26 - (29.7)
1000m - 1:19.67 - (30.4)
1400m - 1:50.15 - (30.4)
1800m - 2:20.08 - (29.9)
2200m - 2:50.74 - (30.6)
2600m - 3:20.73 - (29.9)
3000m - 3:51.14 - (30.4)
3400m - 4:20.70 - (29.5)
3800m - 4:50.32 - (29.6)
4200m - 5:20.03 - (29.7)
4600m - 5:50.16 - (30.1)
5000m - 6:20.57 - (30.4)
8.91 11
7 135 Yevgeny  Seryaev RUS RUS 6:20.75200m - 19.77 - (19.7)
600m - 49.60 - (29.8)
1000m - 1:19.46 - (29.8)
1400m - 1:49.48 - (30.0)
1800m - 2:19.19 - (29.7)
2200m - 2:48.78 - (29.5)
2600m - 3:18.30 - (29.5)
3000m - 3:47.78 - (29.4)
3400m - 4:17.45 - (29.6)
3800m - 4:47.18 - (29.7)
4200m - 5:17.59 - (30.4)
4600m - 5:48.75 - (31.1)
5000m - 6:20.75 - (32.0)
9.09 9
8 134 Aleksandr  Rumyantsev RUS RUS 6:21.11200m - 19.10 - (19.1)
600m - 48.55 - (29.4)
1000m - 1:18.18 - (29.6)
1400m - 1:48.19 - (30.0)
1800m - 2:17.99 - (29.8)
2200m - 2:47.71 - (29.7)
2600m - 3:17.64 - (29.9)
3000m - 3:47.75 - (30.1)
3400m - 4:17.91 - (30.1)
3800m - 4:48.13 - (30.2)
4200m - 5:18.77 - (30.6)
4600m - 5:49.82 - (31.0)
5000m - 6:21.11 - (31.2)
9.45 7
9 123 Jan  Szymanski POL POL 6:21.55200m - 18.73 - (18.7)
600m - 48.61 - (29.8)
1000m - 1:19.01 - (30.4)
1400m - 1:49.16 - (30.1)
1800m - 2:19.22 - (30.0)
2200m - 2:49.81 - (30.5)
2600m - 3:20.09 - (30.2)
3000m - 3:50.38 - (30.2)
3400m - 4:20.58 - (30.1)
3800m - 4:50.22 - (29.6)
4200m - 5:20.57 - (30.3)
4600m - 5:51.31 - (30.7)
5000m - 6:21.55 - (30.2)
9.89 6
10 136 Daniil  Sinitsyn RUS RUS 6:24.34200m - 19.64 - (19.6)
600m - 49.04 - (29.3)
1000m - 1:18.82 - (29.7)
1400m - 1:48.19 - (29.3)
1800m - 2:17.27 - (29.0)
2200m - 2:46.45 - (29.1)
2600m - 3:15.99 - (29.5)
3000m - 3:45.80 - (29.8)
3400m - 4:16.15 - (30.3)
3800m - 4:47.19 - (31.0)
4200m - 5:19.05 - (31.8)
4600m - 5:51.39 - (32.3)
5000m - 6:24.34 - (32.9)
12.68 5
11 41 Ewen  Fernandez FRA FRA 6:25.39200m - 18.61 - (18.6)
600m - 47.71 - (29.1)
1000m - 1:17.80 - (30.0)
1400m - 1:48.11 - (30.3)
1800m - 2:18.45 - (30.3)
2200m - 2:49.12 - (30.6)
2600m - 3:19.92 - (30.7)
3000m - 3:50.52 - (30.6)
3400m - 4:21.10 - (30.5)
3800m - 4:51.70 - (30.5)
4200m - 5:22.59 - (30.8)
4600m - 5:53.85 - (31.2)
5000m - 6:25.39 - (31.5)
13.73 4
12 109 Simen Spieler  Nilsen NOR NOR 6:27.40200m - 19.05 - (19.0)
600m - 48.37 - (29.3)
1000m - 1:18.65 - (30.2)
1400m - 1:49.27 - (30.6)
1800m - 2:19.73 - (30.4)
2200m - 2:50.21 - (30.4)
2600m - 3:20.76 - (30.5)
3000m - 3:51.37 - (30.6)
3400m - 4:21.98 - (30.6)
3800m - 4:53.16 - (31.1)
4200m - 5:24.15 - (30.9)
4600m - 5:55.71 - (31.5)
5000m - 6:27.40 - (31.7)
15.74 3
13 154 Patrick  Meek USA USA 6:27.84200m - 19.56 - (19.5)
600m - 49.67 - (30.1)
1000m - 1:20.22 - (30.5)
1400m - 1:50.78 - (30.5)
1800m - 2:21.43 - (30.6)
2200m - 2:51.91 - (30.4)
2600m - 3:22.23 - (30.3)
3000m - 3:52.59 - (30.3)
3400m - 4:22.88 - (30.2)
3800m - 4:53.32 - (30.4)
4200m - 5:24.28 - (30.9)
4600m - 5:55.66 - (31.3)
5000m - 6:27.84 - (32.1)
16.18 2
14 56 Andrea  Giovannini ITA ITA 6:27.86200m - 18.60 - (18.6)
600m - 48.98 - (30.3)
1000m - 1:19.75 - (30.7)
1400m - 1:50.13 - (30.3)
1800m - 2:20.22 - (30.0)
2200m - 2:50.50 - (30.2)
2600m - 3:20.94 - (30.4)
3000m - 3:51.58 - (30.6)
3400m - 4:22.18 - (30.5)
3800m - 4:53.09 - (30.9)
4200m - 5:24.10 - (31.0)
4600m - 5:55.69 - (31.5)
5000m - 6:27.86 - (32.1)
16.20 1
15 82 Byung-Wook  Ko KOR KOR 6:28.50200m - 19.28 - (19.2)
600m - 48.82 - (29.5)
1000m - 1:18.45 - (29.6)
1400m - 1:48.38 - (29.9)
1800m - 2:18.43 - (30.0)
2200m - 2:48.56 - (30.1)
2600m - 3:18.57 - (30.0)
3000m - 3:48.92 - (30.3)
3400m - 4:19.25 - (30.3)
3800m - 4:50.06 - (30.8)
4200m - 5:21.50 - (31.4)
4600m - 5:54.14 - (32.6)
5000m - 6:28.50 - (34.3)
16.84 0
16 11 Jordan  Belchos CAN CAN 6:29.48200m - 19.43 - (19.4)
600m - 49.24 - (29.8)
1000m - 1:18.56 - (29.3)
1400m - 1:48.43 - (29.8)
1800m - 2:18.58 - (30.1)
2200m - 2:48.64 - (30.0)
2600m - 3:19.17 - (30.5)
3000m - 3:50.26 - (31.0)
3400m - 4:21.58 - (31.3)
3800m - 4:53.24 - (31.6)
4200m - 5:25.11 - (31.8)
4600m - 5:57.33 - (32.2)
5000m - 6:29.48 - (32.1)
17.82 0
17 119 Sebastian  Druszkiewicz POL POL 6:30.25200m - 19.72 - (19.7)
600m - 50.24 - (30.5)
1000m - 1:20.90 - (30.6)
1400m - 1:51.31 - (30.4)
1800m - 2:21.87 - (30.5)
2200m - 2:52.42 - (30.5)
2600m - 3:22.99 - (30.5)
3000m - 3:53.67 - (30.6)
3400m - 4:24.65 - (30.9)
3800m - 4:55.76 - (31.1)
4200m - 5:27.04 - (31.2)
4600m - 5:58.79 - (31.7)
5000m - 6:30.25 - (31.4)
18.59 0
18 54 Marco  Cignini ITA ITA 6:30.69200m - 19.77 - (19.7)
600m - 50.33 - (30.5)
1000m - 1:20.76 - (30.4)
1400m - 1:51.16 - (30.3)
1800m - 2:21.78 - (30.6)
2200m - 2:51.96 - (30.1)
2600m - 3:22.15 - (30.1)
3000m - 3:52.37 - (30.2)
3400m - 4:22.85 - (30.4)
3800m - 4:53.67 - (30.8)
4200m - 5:25.13 - (31.4)
4600m - 5:57.39 - (32.2)
5000m - 6:30.69 - (33.3)
19.03 0
19 69 Shane  Williamson JPN JPN 6:31.04200m - 19.50 - (19.5)
600m - 50.13 - (30.6)
1000m - 1:20.88 - (30.7)
1400m - 1:52.34 - (31.4)
1800m - 2:23.08 - (30.7)
2200m - 2:53.95 - (30.8)
2600m - 3:24.66 - (30.7)
3000m - 3:55.61 - (30.9)
3400m - 4:26.62 - (31.0)
3800m - 4:58.07 - (31.4)
4200m - 5:28.61 - (30.5)
4600m - 5:59.26 - (30.6)
5000m - 6:31.04 - (31.7)
19.38 0
20 143 Nils  van der Poel SWE SWE 6:31.81200m - 19.52 - (19.5)
600m - 50.16 - (30.6)
1000m - 1:21.33 - (31.1)
1400m - 1:52.28 - (30.9)
1800m - 2:23.00 - (30.7)
2200m - 2:53.71 - (30.7)
2600m - 3:24.56 - (30.8)
3000m - 3:55.35 - (30.7)
3400m - 4:26.25 - (30.9)
3800m - 4:57.31 - (31.0)
4200m - 5:28.70 - (31.3)
4600m - 6:00.04 - (31.3)
5000m - 6:31.81 - (31.7)
20.15 0
21 78 Hyong-Jun  Joo KOR KOR 6:31.85200m - 19.19 - (19.1)
600m - 49.32 - (30.1)
1000m - 1:19.88 - (30.5)
1400m - 1:50.75 - (30.8)
1800m - 2:21.24 - (30.4)
2200m - 2:52.23 - (30.9)
2600m - 3:23.09 - (30.8)
3000m - 3:54.43 - (31.3)
3400m - 4:25.33 - (30.8)
3800m - 4:56.90 - (31.5)
4200m - 5:28.74 - (31.8)
4600m - 6:00.50 - (31.7)
5000m - 6:31.85 - (31.3)
20.19 0
22 16 Mathieu  Giroux CAN CAN 6:32.07200m - 18.65 - (18.6)
600m - 48.08 - (29.4)
1000m - 1:18.22 - (30.1)
1400m - 1:48.81 - (30.5)
1800m - 2:19.39 - (30.5)
2200m - 2:50.20 - (30.8)
2600m - 3:21.12 - (30.9)
3000m - 3:52.26 - (31.1)
3400m - 4:23.42 - (31.1)
3800m - 4:55.19 - (31.7)
4200m - 5:27.39 - (32.2)
4600m - 5:59.76 - (32.3)
5000m - 6:32.07 - (32.3)
20.41 0
23 9 Vitaly  Mikhailov BLR BLR 6:32.56200m - 19.56 - (19.5)
600m - 49.45 - (29.8)
1000m - 1:20.05 - (30.5)
1400m - 1:50.69 - (30.6)
1800m - 2:21.54 - (30.8)
2200m - 2:52.23 - (30.6)
2600m - 3:23.43 - (31.2)
3000m - 3:54.69 - (31.2)
3400m - 4:26.13 - (31.4)
3800m - 4:57.91 - (31.7)
4200m - 5:29.70 - (31.7)
4600m - 6:01.15 - (31.4)
5000m - 6:32.56 - (31.4)
20.90 0
24 79 Cheol-Min  Kim KOR KOR 6:32.92200m - 19.32 - (19.3)
600m - 49.25 - (29.9)
1000m - 1:19.55 - (30.2)
1400m - 1:50.06 - (30.5)
1800m - 2:20.19 - (30.1)
2200m - 2:50.66 - (30.4)
2600m - 3:21.52 - (30.8)
3000m - 3:52.75 - (31.2)
3400m - 4:24.37 - (31.6)
3800m - 4:56.29 - (31.9)
4200m - 5:28.41 - (32.1)
4600m - 6:00.75 - (32.3)
5000m - 6:32.92 - (32.1)
21.26 0
25 83 Jin-Yeong  Lee KOR KOR 6:33.27200m - 19.21 - (19.2)
600m - 49.22 - (30.0)
1000m - 1:19.65 - (30.4)
1400m - 1:49.86 - (30.2)
1800m - 2:19.84 - (29.9)
2200m - 2:50.16 - (30.3)
2600m - 3:20.74 - (30.5)
3000m - 3:51.38 - (30.6)
3400m - 4:22.18 - (30.8)
3800m - 4:53.27 - (31.0)
4200m - 5:25.17 - (31.9)
4600m - 5:58.37 - (33.1)
5000m - 6:33.27 - (34.8)
21.61 0
26 5 Bram  Smallenbroek AUT AUT 6:33.74200m - 18.71 - (18.7)
600m - 47.59 - (28.8)
1000m - 1:16.85 - (29.2)
1400m - 1:46.37 - (29.5)
1800m - 2:16.18 - (29.8)
2200m - 2:46.64 - (30.4)
2600m - 3:17.50 - (30.8)
3000m - 3:48.75 - (31.2)
3400m - 4:20.84 - (32.0)
3800m - 4:53.03 - (32.1)
4200m - 5:26.02 - (32.9)
4600m - 5:59.47 - (33.4)
5000m - 6:33.74 - (34.2)
22.08 0
27 33 Viktor-Hald  Thorup DEN DEN 6:34.99200m - 20.18 - (20.1)
600m - 50.97 - (30.7)
1000m - 1:21.37 - (30.4)
1400m - 1:52.04 - (30.6)
1800m - 2:22.13 - (30.0)
2200m - 2:52.47 - (30.3)
2600m - 3:23.21 - (30.7)
3000m - 3:53.71 - (30.5)
3400m - 4:24.48 - (30.7)
3800m - 4:56.07 - (31.5)
4200m - 5:28.23 - (32.1)
4600m - 6:01.47 - (33.2)
5000m - 6:34.99 - (33.5)
23.33 0
28 118 Roland  Cieslak POL POL 6:35.50200m - 19.47 - (19.4)
600m - 49.63 - (30.1)
1000m - 1:20.26 - (30.6)
1400m - 1:50.79 - (30.5)
1800m - 2:21.28 - (30.4)
2200m - 2:52.09 - (30.8)
2600m - 3:23.30 - (31.2)
3000m - 3:54.49 - (31.1)
3400m - 4:26.35 - (31.8)
3800m - 4:58.75 - (32.3)
4200m - 5:31.55 - (32.8)
4600m - 6:04.16 - (32.6)
5000m - 6:35.50 - (31.3)
23.84 0
29 29 Longjiang  Sun CHN CHN 6:37.14200m - 19.68 - (19.6)
600m - 49.60 - (29.9)
1000m - 1:19.28 - (29.6)
1400m - 1:49.06 - (29.7)
1800m - 2:18.92 - (29.8)
2200m - 2:48.93 - (30.0)
2600m - 3:18.88 - (29.9)
3000m - 3:49.44 - (30.5)
3400m - 4:21.01 - (31.5)
3800m - 4:53.52 - (32.5)
4200m - 5:26.99 - (33.4)
4600m - 6:01.50 - (34.5)
5000m - 6:37.14 - (35.6)
25.48 0
30 6 Ferre  Spruyt BEL BEL 6:37.81200m - 18.98 - (18.9)
600m - 49.15 - (30.1)
1000m - 1:19.80 - (30.6)
1400m - 1:51.12 - (31.3)
1800m - 2:22.19 - (31.0)
2200m - 2:53.93 - (31.7)
2600m - 3:25.55 - (31.6)
3000m - 3:57.20 - (31.6)
3400m - 4:28.65 - (31.4)
3800m - 5:00.28 - (31.6)
4200m - 5:32.50 - (32.2)
4600m - 6:05.19 - (32.6)
5000m - 6:37.81 - (32.6)
26.15 0
31 4 Linus  Heidegger AUT AUT 6:38.04200m - 19.54 - (19.5)
600m - 50.19 - (30.6)
1000m - 1:21.24 - (31.0)
1400m - 1:52.31 - (31.0)
1800m - 2:23.71 - (31.4)
2200m - 2:54.99 - (31.2)
2600m - 3:26.45 - (31.4)
3000m - 3:57.90 - (31.4)
3400m - 4:29.67 - (31.7)
3800m - 5:01.58 - (31.9)
4200m - 5:33.84 - (32.2)
4600m - 6:05.95 - (32.1)
5000m - 6:38.04 - (32.0)
26.38 0
32 140 Martin  Hänggi SUI SUI 6:38.39200m - 19.62 - (19.6)
600m - 49.38 - (29.7)
1000m - 1:19.86 - (30.4)
1400m - 1:50.56 - (30.7)
1800m - 2:21.43 - (30.8)
2200m - 2:52.63 - (31.1)
2600m - 3:24.08 - (31.4)
3000m - 3:55.52 - (31.4)
3400m - 4:27.27 - (31.7)
3800m - 4:59.50 - (32.2)
4200m - 5:32.22 - (32.7)
4600m - 6:05.09 - (32.8)
5000m - 6:38.39 - (33.3)
26.73 0
33 141 Roger  Schneider SUI SUI 6:38.97200m - 20.10 - (20.1)
600m - 50.54 - (30.4)
1000m - 1:21.15 - (30.6)
1400m - 1:52.36 - (31.2)
1800m - 2:23.61 - (31.2)
2200m - 2:54.99 - (31.3)
2600m - 3:26.40 - (31.4)
3000m - 3:58.19 - (31.7)
3400m - 4:29.73 - (31.5)
3800m - 5:01.27 - (31.5)
4200m - 5:33.14 - (31.8)
4600m - 6:05.67 - (32.5)
5000m - 6:38.97 - (33.3)
27.31 0
34 76 Artur  Sergiyenko KAZ KAZ 6:42.24200m - 19.37 - (19.3)
600m - 49.94 - (30.5)
1000m - 1:20.76 - (30.8)
1400m - 1:51.88 - (31.1)
1800m - 2:23.02 - (31.1)
2200m - 2:54.23 - (31.2)
2600m - 3:25.59 - (31.3)
3000m - 3:57.13 - (31.5)
3400m - 4:28.84 - (31.7)
3800m - 5:01.19 - (32.3)
4200m - 5:34.17 - (32.9)
4600m - 6:07.96 - (33.7)
5000m - 6:42.24 - (34.2)
30.58 0
35 26 Yan  Liu CHN CHN 6:43.83200m - 20.11 - (20.1)
600m - 50.88 - (30.7)
1000m - 1:22.51 - (31.6)
1400m - 1:54.08 - (31.5)
1800m - 2:25.85 - (31.7)
2200m - 2:57.29 - (31.4)
2600m - 3:28.82 - (31.5)
3000m - 4:01.15 - (32.3)
3400m - 4:33.51 - (32.3)
3800m - 5:05.65 - (32.1)
4200m - 5:38.32 - (32.6)
4600m - 6:11.45 - (33.1)
5000m - 6:43.83 - (32.3)
32.17 0
36 8 Maarten  Swings BEL BEL 6:45.62200m - 19.85 - (19.8)
600m - 50.65 - (30.7)
1000m - 1:22.16 - (31.5)
1400m - 1:53.64 - (31.4)
1800m - 2:25.31 - (31.6)
2200m - 2:57.09 - (31.7)
2600m - 3:29.05 - (31.9)
3000m - 4:00.91 - (31.8)
3400m - 4:32.56 - (31.6)
3800m - 5:04.77 - (32.2)
4200m - 5:37.44 - (32.6)
4600m - 6:10.93 - (33.4)
5000m - 6:45.62 - (34.6)
33.96 0
37 115 Reyon  Kay NZL NZL 6:48.24200m - 19.40 - (19.3)
600m - 49.34 - (29.9)
1000m - 1:19.46 - (30.1)
1400m - 1:50.53 - (31.0)
1800m - 2:21.38 - (30.8)
2200m - 2:52.33 - (30.9)
2600m - 3:23.72 - (31.3)
3000m - 3:55.37 - (31.6)
3400m - 4:27.73 - (32.3)
3800m - 5:01.09 - (33.3)
4200m - 5:35.70 - (34.6)
4600m - 6:11.32 - (35.6)
5000m - 6:48.24 - (36.9)
36.58 0
38 31 Zdenek  Haselberger CZE CZE 7:02.84200m - 19.48 - (19.4)
600m - 50.36 - (30.8)
1000m - 1:22.14 - (31.7)
1400m - 1:54.04 - (31.9)
1800m - 2:26.48 - (32.4)
2200m - 2:59.62 - (33.1)
2600m - 3:33.18 - (33.5)
3000m - 4:07.31 - (34.1)
3400m - 4:42.33 - (35.0)
3800m - 5:17.25 - (34.9)
4200m - 5:51.95 - (34.6)
4600m - 6:27.26 - (35.3)
5000m - 7:02.84 - (35.5)
51.18 0
39 34 Robert  Brandt FIN FIN DQ200m - 20.50 - (20.5)
600m - 51.71 - (31.2)
1000m - 1:23.41 - (31.7)
1400m - 1:55.23 - (31.8)
1800m - 2:26.87 - (31.6)
2200m - 2:58.75 - (31.8)
2600m - 3:30.32 - (31.5)
3000m - 4:01.89 - (31.5)
3400m - 4:33.46 - (31.5)
3800m - 5:05.75 - (32.2)
4200m - 5:38.53 - (32.7)
4600m - 6:12.17 - (33.6)
5000m - 6:45.46 - (33.3)
0